Location: Powder Track
(41.8531°N, 72.3584°W)
Time: 09:25:53
(UTC+00:00)

Transit 4A - Pass Details

Date: 09 August 2021
Orbit: 871 x 974 km, 66.8° (Epoch: 20 September)

Event Time Altitude Azimuth Distance (km) Brightness Sun altitude
Rises 01:21:51 0° 165° (SSE) 3,491 - -14.3°
Reaches altitude 10° 01:25:05 10° 148° (SSE) 2,541 - -14.7°
Maximum altitude 01:29:01 19° 105° (ESE) 1,974 - -15.3°
Exits shadow 01:29:25 19° 100° (E) 1,980 9.1 -15.4°
Drops below altitude 10° 01:32:56 10° 62° (ENE) 2,526 9.9 -15.9°
Sets 01:36:07 0° 46° (NE) 3,465 10.8 -16.3°
